Location: Newark
(30.3369°N, 81.6614°W)
Time: 06:22:14
(UTC+00:00)

X-37B - Visible Passes

Search period start: 01 October 2020 00:00
Search period end: 11 October 2020 00:00
Orbit: 386 x 387 km, 45.0° (Epoch: 18 September)

Date Brightness Start Highest point End Pass type
(mag) Time Alt. Az. Time Alt. Az. Time Alt. Az.
01 Oct 0.9 00:01:40 10° SW 00:04:42 45° SE 00:06:26 22° ENE visible
02 Oct 2.0 00:39:49 10° W 00:42:45 33° NNW 00:43:20 30° N visible
02 Oct 0.8 23:40:58 10° WSW 23:44:06 73° NW 23:47:17 10° NE visible
03 Oct 4.0 01:19:46 10° NW 01:20:04 11° NW 01:20:04 11° NW visible
04 Oct 3.0 00:19:58 10° WNW 00:22:19 19° NNW 00:24:23 11° NNE visible
06 Oct 3.4 00:00:39 10° NW 00:02:01 12° NNW 00:03:24 10° N visible
